Location: El Conde
(10.2895°N, 67.2409°W)
Time: 18:04:24
(UTC+00:00)

GEOS 3 Rocket - Pass Details

Date: 19 May 2024
Orbit: 782 x 834 km, 115.0° (Epoch: 12 June)

Event Time Altitude Azimuth Distance (km) Brightness Sun altitude
Rises 23:35:00 0° 46° (NE) 3,273 6.5 -12.4°
Reaches altitude 10° 23:37:31 10° 56° (ENE) 2,339 5.7 -13.0°
Maximum altitude 23:41:56 31° 117° (ESE) 1,355 4.2 -14.0°
Drops below altitude 10° 23:46:19 10° 178° (S) 2,329 5.7 -14.9°
Sets 23:48:49 0° 189° (S) 3,256 6.6 -15.5°
